Zurück zum Katalog

STARLINK-30991

AktivKommunikationVLEO
NORAD 58484·PAYLOAD·🇺🇸 United States

Gestartet Dec 3, 2023 von Cape Canaveral Space Force Station

Loading…

Nächste Überflüge (nächste 24 Stunden)

TLE

AktuellSource: CelesTrak SupGP

Epoche: Sep 14, 2026, 21:11 UTC

1 58484C 23186M   26257.88312500  .00044290  00000+0  16042-2 0  2578
2 58484  43.0029  74.8018 0001368 266.6740 152.8719 15.27554998    15

Verfolge STARLINK-30991 in Echtzeit mit AllMySat

Download on the App Store